星链-1421 (STARLINK-1421 )

导读

STARLINK-1421是美国太空探索技术公司Starlink卫星互联网星座的成员,于2020年6月4日发射入轨。它属于第一代星链卫星,主要为全球提供低延迟、高速率的宽带互联网服务,尤其覆盖偏远地区与网络基础设施薄弱区域,依托低轨轨道布局,助力星链星座构建全球卫星通信网络。

基本信息
目录编号:
45709
目录名称:
STARLINK-1421
国际标识:
2020-035BE
轨道中心:
EARTH
卫星名称:
星链-1421
卫星全名:
星链-1421 (STARLINK-1421 )
卫星状态:
已陨落 最后检测时间 2024-08-29
发射日期:
2020-06-04 UTC
国别 :
美国 (US)
星等 :
--
轨道信息
数据来源 国际轨道数据
星历时间: 2024-08-29T10:44:12+0800
轨道信息已过期654天
半长轴: 6589.517km
偏心率: 0.0008548
轨道倾角: 53.036°
近地点辐角 343.498°
升交点赤经 308.497°
平近点角 120.875°
近地点: 205.749km
远地点: 217.015km
周期: 88.724分钟
每日圈数: 16.230148
详细信息
固有亮度:
5
最大亮度:
2.5
卫星平台:
Starlink V1.0
覆盖范围:
全球
运营商:
太空探索技术公司
运营商所在国:
美国
制造商(研发单位):
太空探索技术公司
制造商所在国:
美国
使用方式:
暂无
卫星简介
星链(Starlink)计划是由太空探索技术公司(SpaceX)提出的一个巨型低轨卫星互联网星座项目,计划在2019年至2024年间在太空搭建由约1.2万颗卫星组成的“星链”网络,其中1584颗将部署在地球上空550千米处的近地轨道,并从2020年开始工作。该卫星仍在工作。